Regional Weather Roundup
Issued by NWS Cleveland, OH

Home | Current Version | Previous Version | Text Only | Print | Product List | Glossary Off
Versions: 1 2 3 4 5 6 7 8 9 10 11 12 13 14 15 16 17 18 19 20 21 22 23 24 25 26 27 28 29 30 31 32 33 34 35 36 37 38 39 40 41 42 43 44 45 46 47 48 49 50

000
ASUS41 KCLE 020410
RWRCLE
OHIO REGIONAL WEATHER ROUNDUP
NATIONAL WEATHER SERVICE CLEVELAND, OH
1200 AM EDT THU JUL 02 2015

NOTE: "FAIR" INDICATES FEW OR NO CLOUDS BELOW 12,000 FEET WITH NO
SIGNIFICANT WEATHER AND/OR OBSTRUCTIONS TO VISIBILITY.

OHZ001>008-015>018-024>027-034-035-043-044-020500-
   NORTHWEST OHIO

CITY           SKY/WX    TMP DP  RH WIND       PRES   REMARKS
DEFIANCE       MOCLDY    63  55  75 NW5       29.95S
FINDLAY        PTCLDY    64  60  87 CALM      29.93S
TOLEDO EXPRESS CLOUDY    64  56  75 NE5       29.94S
TOLEDO EXEC    CLOUDY    67  56  67 N3        29.95S
LIMA           PTCLDY    63  58  83 N5        29.95R
$$

OHZ009>014-019>023-028>033-038-089-020500-
   NORTHEAST OHIO

CITY           SKY/WX    TMP DP  RH WIND       PRES   REMARKS
CLE-HOPKINS    MOCLDY    67  59  75 NE5       29.96S
CLE-LAKEFRONT  MOCLDY    68  61  78 N10       29.94R
CUY CO. ARPT   NOT AVBL
LORAIN-ELYRIA  MOCLDY    63  61  93 CALM      29.95S FOG
ASHTABULA      PTCLDY    59  58  96 CALM      29.96S
AKRON-CANTON   PTCLDY    62  57  83 N5        29.94F
WOOSTER        PTCLDY    60  58  92 NW3       29.95F
MANSFIELD      MOCLDY    63  59  87 CALM      29.95F
YOUNGSTOWN     MOCLDY    63  59  87 N3        29.95S
$$

OHZ042-051>053-060>062-070>072-077>081-020500-
  SOUTHWEST OHIO

CITY           SKY/WX    TMP DP  RH WIND       PRES   REMARKS
CINC-COVINGTON CLOUDY    69  65  86 CALM      29.94S
CINC-LUNKEN    CLOUDY    67  66  97 CALM      29.93S
HAMILTON       CLOUDY    69  66  90 NW3       29.94S
DAYTON         CLOUDY    70  63  78 CALM      29.95S
WRIGHT-PAT AFB MOCLDY    67  63  89 N2        29.94R
DAYTON GENERAL MOCLDY    67  61  81 CALM      29.93S
WILMINGTON     CLEAR     65  61  87 CALM      29.94S
$$

OHZ036-037-039>041-045>050-054>059-063>069-073>076-082>088-020500-
  CENTRAL AND SOUTHEAST OHIO

CITY           SKY/WX    TMP DP  RH WIND       PRES   REMARKS
COLUMBUS       PTCLDY    65  59  81 CALM      29.93S
OSU AIRPORT    PTCLDY    65  59  81 CALM      29.94S
BOLTON FIELD   CLOUDY    64  62  94 CALM      29.94S
RICKENBACK AFB PTCLDY    65  61  88 CALM      29.93S
NEWARK         PTCLDY    61  59  93 CALM      29.94S
MARION         MOCLDY    65  61  87 CALM      29.94F
LANCASTER      CLEAR     61  59  93 CALM      29.94S
ZANESVILLE     NOT AVBL
NEW PHILLY     PTCLDY    59  59 100 CALM      29.95S
$$



USA.gov is the U.S. government's official web portal to all federal, state and local government web resources and services.